Hourly Data Report for May 11, 2012

All times are specified in Local Standard Time (LST). Add 1 hour to adjust for Daylight Saving Time where and when it is observed.

DEER LAKE A
NEWFOUNDLAND

49°12'33.000" N
57°23'40.000" W
21.90 m
8401502
71809
YDF

Download Data

Hourly Data (May 2012)
Hourly Data Report for May 11, 2012
Temp Definition
°C
Dew Point Temp Definition
°C
Rel Hum Definition
%
Wind Dir Definition
10's deg

Wind Spd Definition
km/h
Visibility Definition
km
Stn Press Definition
kPa
Hmdx Definition


Wind Chill Definition


Weather Definition


TIME
00:30 Legend Double Dagger 14.8 11.4 80 19 28 10.0 100.57     Rain
01:30 Legend Double Dagger 15.4 11.6 78 18 37 10.0 100.43     LegendNANA
02:30 Legend Double Dagger 15.3 11.3 77 19 47 10.0 100.44     Cloudy
03:30 Legend Double Dagger 14.4 11.0 80 21 25 10.0 100.43     LegendNANA
04:30 Legend Double Dagger 14.2 11.2 82 24 17 10.0 100.43     LegendNANA
05:30 Legend Double Dagger 15.0 12.0 82 19 26 10.0 100.45     Mostly Cloudy
06:30 Legend Double Dagger 14.8 12.0 83 18 10 10.0 100.46     LegendNANA
07:30 Legend Double Dagger 15.2 11.6 79 25 21 10.0 100.51     LegendNANA
08:30 Legend Double Dagger 14.6 12.3 86 20 30 10.0 100.51     Rain
09:30 Legend Double Dagger 14.8 12.5 86 21 18 10.0 100.61     Rain Showers
10:30 Legend Double Dagger 14.5 12.7 89 20 16 10.0 100.68     Rain Showers
11:30 Legend Double Dagger 15.0 12.2 83 21 13 10.0 100.68     Cloudy
12:30 Legend Double Dagger 15.4 12.4 82 18 19 10.0 100.76     LegendNANA
13:30 Legend Double Dagger 16.9 12.1 73 19 15 10.0 100.79     LegendNANA
14:30 Legend Double Dagger 17.4 12.6 73 17 14 10.0 100.83     Mostly Cloudy
15:30 Legend Double Dagger 19.0 11.9 63 19 18 10.0 100.85     LegendNANA
16:30 Legend Double Dagger 18.7 11.4 62 18 20 10.0 100.87     LegendNANA
17:30 Legend Double Dagger 18.6 12.0 65 16 17 10.0 100.91     Mostly Cloudy
18:30 Legend Double Dagger 18.2 11.1 63 16 25 10.0 100.98     LegendNANA
19:30 Legend Double Dagger 15.5 10.1 70 17 17 10.0 101.09     LegendNANA
20:30 Legend Double Dagger 14.3 10.0 75 18 14 10.0 101.19     Mostly Cloudy
21:30 Legend Double Dagger 14.2 9.5 73 19 23 10.0 101.22     LegendNANA
22:30 Legend Double Dagger 12.6 9.5 81 32 4 10.0 101.30     LegendNANA
23:30 Legend Double Dagger 12.8 9.3 79 17 13 10.0 101.32     Mostly Cloudy

Notes on Data Quality.

Legend

  • E = Estimated
  • M = Missing
  • NA = Not Available
  • ‡ = Partner data that is not subject to review by the National Climate Archives
Date modified: